"Pseudo-MPEC" for P11OlVO

Created 2023 Nov 21 7:22:07 UT using Find_Orb

Click here for an explanation of pseudo-MPECs

 
 Astrometry: 
     P11OlVO  C2023 11 17k.c;;j-#S29/$ImWx*]`1s7xtk:Kep'OevsryM+86c;]t9BXS^CuO18
     P11OlVO  C2023 11 17uTA59UP@^Who^M-ujHXe;CI_@)4;^/*I_HCCd:U-/m4=h%?!j5!3O18
     P11OlVO  C2023 11 17^:-A)H%8,walF+idExKTl`K4ek5UZkB_O9hws']pBOp's[K,[=F`O18
     P11OlVO* C2023 11 18R1+Afe2.]r]w`4pAr@d!kENLL2-=YGIDSk1#?OWAstrometrySjkF51
     P11OlVO  C2023 11 18#1=COs4uG:GG'.?:/h^b3I[ki7@j0Emredacted;vcj%\%T]sU+TF51
     P11OlVO  C2023 11 18c$nsF-5ZVpKy-EyQ0ED`b5eDnt'AOfvmDjfkQUK.LP-3Oae9,cynF51
     P11OlVO  C2023 11 18x?lF9Mhhnd[8.!)`W.H]8UJBclicki[S[J+RmDt[88qPFherer4`F51
     P11OlVO  C2023 11 18)v.@5kW4Z873Mas'X%ty0n7'x7S2R]c:WxXH/m]!^JOyCVWforH+F51
     P11OlVO KC2023 11 193!;'lvZ^OF6f/PDacFp0]rH.!G+1%.lexplanation/WNVS.:].PH21
     P11OlVO KC2023 11 19IZG%wnP-QH/9#WE46-Q(pb0LpfSMVEQ$J(LT6#VEqYVpnl#yOsa_H21
     P11OlVO KC2023 11 19F1X2_)u*4S.%c,\?,Syb#G/F^TawMUfk:I@D7M-TRp:iiFvBcCrCH21
     P11OlVO 1C2023 11 21.20667 04 36 50.13 +31 49 01.9    ~BL7M 22.0 VXNEOCP033
     P11OlVO 1C2023 11 21.21025 04 36 49.89 +31 49 07.4    ~BL7M 21.1 VXNEOCP033

Station data:
(033) Karl Schwarzschild Observatory, Tautenburg  (N50.980137 E11.711240)
   Germany.  Observer B. Stecklum. 1.34-m f/3 Schmidt + CCD.
(F51) Pan-STARRS 1, Haleakala  (N20.707234 W156.255910)  US/Hawaii.
   Observers J. Bulger, T. Lowe, A. Schultz, M. Willman. Measurers K.
   Chambers, S. Chastel, T. de Boer, L. Denneau, J. Fairlamb, H. Flewelling,
   M. Huber, C.-C. Lin, E. Magnier, Y. Ramanjooloo, R. Wainscoat, R. Weryk.
   1.8-m Ritchey-Chrétien + CCD.
(H21) Astronomical Research Observatory, Westfield  (N39.483054 W87.968270)
   US/Illinois.  Observer R. Holmes. Measurers S. Foglia, L. Buzzi, T.
   Linder, R. Holmes. 0.76-m f/3.0 astrograph + CCD0.81-m f/4.0 astrograph +
   CCD0.61-m f/4.5 astrograph + CCD0.40-m f/5.32 astrograph + CCD.
(O18) WFST, Lenghu  (N38.607601 E93.895220).

Orbital elements:  P11OlVO
   Perihelion 2024 Feb 12.46642 +/- 0.108 TT = 11:11:38 (JD 2460352.96642)
Epoch 2023 Nov 21.0 TT = JDT 2460269.5   Earth MOID: 0.0486   Ma: 0.0394
M 330.81841381 +/- 0.58             (J2000 ecliptic)             AutoNEOCP
n   0.34962067 +/- 0.00667          Peri.  109.83050 +/- 0.18
a   1.99558995 +/- 0.0254           Node    41.23669 +/- 0.14
e   0.5551490 +/- 0.00628           Incl.    7.61829 +/- 0.09
P   2.82                   H 22.32  G  0.15   U  9.4
q 0.88774010 +/- 0.00214    Q 3.10343980 +/- 0.0519
From 13 observations 2023 Nov. 17-21; mean residual 0".30
Residuals in arcseconds: 
231117 O18  .03-  .31+    231118 F51  .01-  .21-    231119 H21  .02-  .50+    
231117 O18  .04+  .34+    231118 F51  .01-  .24-    231121 033  .06+  .22-    
231117 O18  .07+  .35+    231118 F51  .12+  .02-    231121 033  .15-  .04+    
231118 F51  .16-  .03+    231119 H21  .31+  .83+    
231118 F51  .02-  .17-    231119 H21  .19+  .86+    

Ephemerides (geocentric):
Date (UTC) HH   RA             Dec           delta  r     elong  mag " sig PA
---- --------  ------------   ------------  ------ ------ -----  --- --------
2023 11 21 07  04 36 46.022   +31 51 23.74  .38727 1.3633 163.2 21.7 .085   9
2023 11 21 08  04 36 43.464   +31 52 26.85  .38689 1.3630 163.2 21.7 .082   3
2023 11 21 09  04 36 40.898   +31 53 30.04  .38651 1.3626 163.2 21.7 .081 177
2023 11 21 10  04 36 38.322   +31 54 33.32  .38614 1.3623 163.3 21.6 .080 170
2023 11 21 11  04 36 35.738   +31 55 36.69  .38576 1.3619 163.3 21.6 .080 163
2023 11 21 12  04 36 33.145   +31 56 40.14  .38538 1.3616 163.3 21.6 .082 156
2023 11 21 13  04 36 30.543   +31 57 43.68  .38500 1.3613 163.4 21.6 .084 150
2023 11 21 14  04 36 27.932   +31 58 47.31  .38462 1.3609 163.4 21.6 .088 143
2023 11 21 15  04 36 25.313   +31 59 51.03  .38425 1.3606 163.4 21.6 .093 137
2023 11 21 16  04 36 22.684   +32 00 54.83  .38387 1.3603 163.4 21.6 .099 132
2023 11 21 17  04 36 20.047   +32 01 58.72  .38349 1.3599 163.5 21.6 .106 127
2023 11 21 18  04 36 17.401   +32 03 02.70  .38312 1.3596 163.5 21.6 .113 123
2023 11 21 19  04 36 14.746   +32 04 06.77  .38274 1.3592 163.5 21.6 .121 119
2023 11 21 20  04 36 12.082   +32 05 10.93  .38236 1.3589 163.5 21.6 .130 115
2023 11 21 21  04 36 09.409   +32 06 15.17  .38199 1.3586 163.6 21.6 .140 112
2023 11 21 22  04 36 06.727   +32 07 19.50  .38161 1.3582 163.6 21.6 .150 109
2023 11 21 23  04 36 04.036   +32 08 23.92  .38124 1.3579 163.6 21.6 .160 107
2023 11 22 00  04 36 01.337   +32 09 28.43  .38086 1.3575 163.7 21.6 .171 105
2023 11 22 01  04 35 58.628   +32 10 33.03  .38049 1.3572 163.7 21.6 .182 103
2023 11 22 02  04 35 55.910   +32 11 37.72  .38011 1.3569 163.7 21.6 .194 101
2023 11 22 03  04 35 53.183   +32 12 42.49  .37974 1.3565 163.7 21.6 .206  99
2023 11 22 04  04 35 50.447   +32 13 47.36  .37937 1.3562 163.8 21.6 .218  98
2023 11 22 05  04 35 47.703   +32 14 52.31  .37899 1.3559 163.8 21.6 .231  96
2023 11 22 06  04 35 44.949   +32 15 57.35  .37862 1.3555 163.8 21.6 .244  95
2023 11 22 07  04 35 42.186   +32 17 02.49  .37825 1.3552 163.8 21.6 .257  94
2023 11 22 08  04 35 39.414   +32 18 07.71  .37787 1.3548 163.9 21.6 .270  93
2023 11 22 09  04 35 36.633   +32 19 13.02  .37750 1.3545 163.9 21.6 .284  92
2023 11 22 10  04 35 33.842   +32 20 18.42  .37713 1.3542 163.9 21.6 .298  91
2023 11 22 11  04 35 31.043   +32 21 23.91  .37676 1.3538 163.9 21.6 .313  90
2023 11 22 12  04 35 28.234   +32 22 29.49  .37639 1.3535 164.0 21.6 .327  89
2023 11 22 13  04 35 25.417   +32 23 35.16  .37602 1.3531 164.0 21.6 .342  89
2023 11 22 14  04 35 22.590   +32 24 40.93  .37565 1.3528 164.0 21.6 .357  88
2023 11 22 15  04 35 19.754   +32 25 46.78  .37527 1.3525 164.0 21.6 .373  87
2023 11 22 16  04 35 16.908   +32 26 52.72  .37490 1.3521 164.1 21.5 .388  87
2023 11 22 17  04 35 14.054   +32 27 58.75  .37453 1.3518 164.1 21.5 .404  86
2023 11 22 18  04 35 11.190   +32 29 04.88  .37416 1.3515 164.1 21.5 .421  86
2023 11 22 19  04 35 08.317   +32 30 11.09  .37379 1.3511 164.1 21.5 .437  85
2023 11 22 20  04 35 05.435   +32 31 17.40  .37343 1.3508 164.2 21.5 .454  85
2023 11 22 21  04 35 02.543   +32 32 23.79  .37306 1.3504 164.2 21.5 .470  84
2023 11 22 22  04 34 59.642   +32 33 30.28  .37269 1.3501 164.2 21.5 .488  84
2023 11 22 23  04 34 56.732   +32 34 36.86  .37232 1.3498 164.2 21.5 .505  83
2023 11 23 00  04 34 53.813   +32 35 43.53  .37195 1.3494 164.3 21.5 .522  83
2023 11 23 01  04 34 50.884   +32 36 50.29  .37158 1.3491 164.3 21.5 .540  83
2023 11 23 02  04 34 47.946   +32 37 57.14  .37122 1.3487 164.3 21.5 .558  82
2023 11 23 03  04 34 44.998   +32 39 04.09  .37085 1.3484 164.3 21.5 .577  82
2023 11 23 04  04 34 42.041   +32 40 11.13  .37048 1.3481 164.4 21.5 .595  81
2023 11 23 05  04 34 39.075   +32 41 18.26  .37012 1.3477 164.4 21.5 .614  81
2023 11 23 06  04 34 36.099   +32 42 25.48  .36975 1.3474 164.4 21.5 .633  81